Regional Weather Roundup
Issued by NWS Green Bay, WI

Home | Current Version | Previous Version | Graphics & Text | Print | Product List | Glossary Off
Versions: 1 2 3 4 5 6 7 8 9 10 11 12 13 14 15 16 17 18 19 20 21 22 23 24 25 26 27 28 29 30 31 32 33 34 35 36 37 38 39 40 41 42 43 44 45 46 47 48 49 50

000
ASUS43 KGRB 242000
RWRGRB

NORTH-CENTRAL AND NORTHEAST WISCONSIN REGIONAL WEATHER ROUNDUP
NATIONAL WEATHER SERVICE GREEN BAY WI
300 PM CDT SAT SEP 24 2016

WIZ005-009-010>012-018-019-242100-
NORTH CENTRAL WISCONSIN

CITY           SKY/WX    TMP DP  RH WIND       PRES   REMARKS
IRONWOOD       CLOUDY    67  57  70 SE9       30.15F
MANITOWISH WTR NOT AVBL
ARBOR VITAE    NOT AVBL
EAGLE RIVER    NOT AVBL
LAND O LAKES   NOT AVBL
RHINELANDER    SUNNY     69  54  58 SE12      30.19F
PHILLIPS       NOT AVBL
ANTIGO         NOT AVBL
TOMAHAWK       NOT AVBL
MERRILL        NOT AVBL
$$

WIZ013-073-242100-
NORTHEAST WISCONSIN

CITY           SKY/WX    TMP DP  RH WIND       PRES   REMARKS
IRON MOUNTAIN  SUNNY     68  46  45 S6        30.21F
MARINETTE      SUNNY     66  51  58 SE12      30.23F
$$

WIZ017-030-035>037-045-242100-
CENTRAL WISCONSIN

CITY           SKY/WX    TMP DP  RH WIND       PRES   REMARKS
MEDFORD        NOT AVBL
WAUSAU         CLOUDY    68  53  58 SE12      30.17F
MOSINEE        MOSUNNY   66  54  63 SE8       30.19F
MARSHFIELD     CLOUDY    66  55  67 SE9       30.16F
WISC RAPIDS    LGT RAIN  67  57  70 E12       30.18F
STEVENS POINT  NOT AVBL
WAUPACA        NOT AVBL
SHAWANO        NOT AVBL
CLINTONVILLE   NOT AVBL
WAUTOMA        CLOUDY    68  58  70 SE8       30.19F
$$

WIZ038-039-048-051-242100-
FOX VALLEY

CITY           SKY/WX    TMP DP  RH WIND       PRES   REMARKS
NWS GREEN BAY  SUNNY     69  53  56 SE9       30.21F
APPLETON       PTSUNNY   68  52  56 SE9       30.19F
OSHKOSH        MOSUNNY   69  56  62 E10       30.19F
FOND DU LAC    CLOUDY    67  57  70 SE8       30.20S
$$

WIZ022-050-052-242100-
EAST CENTRAL WISCONSIN

CITY           SKY/WX    TMP DP  RH WIND       PRES   REMARKS
EPHRAIM        NOT AVBL
WASHINGTON ISL NOT AVBL
STURGEON BAY   MOSUNNY   66  52  60 E8        30.24F
MANITOWOC      NOT AVBL
SHEBOYGAN      CLOUDY    65  55  70 E7        30.21F
$$

LMZ563-521-522-541>543-242100-
LAKESHORE

STATION/POSITION TIME  TEMP    WIND        PRES    VSBY  WAVE
                       AIR SEA DIR/SP/G                  HT/PER
                 (UTC) (F)     (DEG/KT/KT) (MB)    (MI)  (FT/S)
SHEBOYGAN LKSHOR 1900   63     130/ 11/ 12 1023.1F
KEWAUNEE LKSHORE 1900   63     150/  8/  9 1023.5F
NORTHPORT PIER   1900   63     110/  9/ 13 1024.4F
N MID LAKE BUOY  1850   62 68  110/ 12/ 14 1024.4F         2/ 3
S GREEN BAY BUOY 1900   65 67  160/  6/  8 1023.3F
SISTER BAY LKSHO 1908   71     130/ 11/ 13   N/A
CHAMBERS ISLAND  1900   65     110/  7/ 14 1023.7F
MENOMINEE LKSHOR 1900   64     150/  7/  8 1023.3F
$$



USA.gov is the U.S. government's official web portal to all federal, state and local government web resources and services.